Weather History for KPVW - December, 2012

Change the Weather History Date:

Monday, December 10, 2012

  Actual Average Record
Temperature  
Mean Temperature 24 °F -  
Max Temperature 37 °F 52 °F 78 °F (1933)
Min Temperature 10 °F 28 °F 4 °F (1917)
Degree Days  
Heating Degree Days 42    
Moisture  
Dew Point 12 °F    
Average Humidity 59    
Maximum Humidity 80    
Minimum Humidity 36    
Precipitation  
Precipitation 0.00 in - - ()
Sea Level Pressure  
Sea Level Pressure 30.06 in    
Wind  
Wind Speed 8 mph (WNW)    
Max Wind Speed 14 mph    
Max Gust Speed 17 mph    
Visibility 10 miles    
Events      
Averages and records for this station are not official NWS values.
T = Trace of Precipitation, MM = Missing Value Source: NWS Daily Summary

Daily Weather History Graph

Daily Weather History Graph

Search for Another Location

Airport or City:

Trip Planner

Search our weather history database for the weather conditions in past years. The results will help you decide how hot, cold, wet, or windy it might be!

Date:

Astronomy

Dec. 10, 2012 Rise Set
Actual Time 7:42 AM CST 5:37 PM CST
Civil Twilight 7:14 AM CST 6:05 PM CST
Nautical Twilight 6:43 AM CST 6:36 PM CST
Astronomical Twilight 6:12 AM CST 7:07 PM CST
Moon 4:32 AM CST (12/10) 3:24 PM CST (12/10)
Length of Visible Light 10h 50m
Length of Day
9h 55m
Waning Crescent, 10% of the Moon is Illuminated
Dec 10
Waning Crescent
Dec 13
New
Dec 19
First Quarter
Dec 28
Full
Jan 4
Last Quarter

Hourly Weather History & Observations

Time (CST) Temp. Windchill Dew Point Humidity Pressure Visibility Wind Dir Wind Speed Gust Speed Precip Events Conditions
12:15 AM 24.8 °F 14.0 °F 19.4 °F 80% 30.18 in 10.0 mi North 11.5 mph - N/A   Mostly Cloudy
12:35 AM 23.0 °F 11.7 °F 17.6 °F 80% 30.17 in 10.0 mi North 11.5 mph - N/A   Scattered Clouds
12:55 AM 23.0 °F 12.4 °F 17.6 °F 80% 30.18 in 10.0 mi NNW 10.4 mph - N/A   Clear
1:15 AM 23.0 °F 13.1 °F 17.6 °F 80% 30.18 in 10.0 mi NNW 9.2 mph 16.1 mph N/A   Clear
1:35 AM 23.0 °F 12.4 °F 15.8 °F 74% 30.17 in 10.0 mi NNW 10.4 mph - N/A   Scattered Clouds
1:55 AM 23.0 °F 10.6 °F 14.0 °F 68% 30.16 in 10.0 mi NNW 13.8 mph - N/A   Mostly Cloudy
2:15 AM 23.0 °F 11.7 °F 12.2 °F 63% 30.15 in 10.0 mi North 11.5 mph - N/A   Scattered Clouds
2:55 AM 21.2 °F 9.5 °F 10.4 °F 63% 30.15 in 10.0 mi NNW 11.5 mph - N/A   Clear
3:15 AM 21.2 °F 10.1 °F 10.4 °F 63% 30.15 in 10.0 mi North 10.4 mph - N/A   Clear
3:35 AM 21.2 °F 10.1 °F 10.4 °F 63% 30.14 in 10.0 mi NNW 10.4 mph - N/A   Clear
3:55 AM 19.4 °F 9.5 °F 10.4 °F 68% 30.14 in 10.0 mi NNW 8.1 mph - N/A   Clear
4:15 AM 19.4 °F 9.5 °F 8.6 °F 63% 30.15 in 10.0 mi NNW 8.1 mph - N/A   Clear
4:35 AM 19.4 °F 7.9 °F 8.6 °F 63% 30.13 in 10.0 mi North 10.4 mph - N/A   Clear
4:55 AM 17.6 °F 7.3 °F 8.6 °F 68% 30.13 in 10.0 mi NNW 8.1 mph - N/A   Clear
5:15 AM 17.6 °F 5.7 °F 8.6 °F 68% 30.12 in 10.0 mi North 10.4 mph - N/A   Clear
5:35 AM 17.6 °F 5.7 °F 8.6 °F 68% 30.12 in 10.0 mi North 10.4 mph - N/A   Clear
5:55 AM 15.8 °F 6.1 °F 5.0 °F 62% 30.13 in 10.0 mi NNW 6.9 mph - N/A   Clear
6:15 AM 15.8 °F 8.6 °F 6.8 °F 68% 30.13 in 10.0 mi NW 4.6 mph - N/A   Clear
6:35 AM 14.0 °F 5.1 °F 5.0 °F 67% 30.13 in 10.0 mi West 5.8 mph - N/A   Clear
6:55 AM 12.2 °F 4.3 °F 5.0 °F 73% 30.14 in 10.0 mi West 4.6 mph - N/A   Clear
7:15 AM 10.4 °F -1.5 °F 5.0 °F 79% 30.15 in 10.0 mi WNW 8.1 mph - N/A   Clear
7:35 AM 12.2 °F 2.9 °F 5.0 °F 73% 30.15 in 10.0 mi West 5.8 mph - N/A   Clear
7:55 AM 10.4 °F 2.2 °F 5.0 °F 79% 30.15 in 10.0 mi West 4.6 mph - N/A   Clear
8:15 AM 12.2 °F 2.9 °F 6.8 °F 79% 30.15 in 10.0 mi West 5.8 mph - N/A   Clear
8:35 AM 15.8 °F 6.1 °F 8.6 °F 73% 30.16 in 10.0 mi WSW 6.9 mph - N/A   Clear
8:55 AM 17.6 °F 9.3 °F 10.4 °F 73% 30.15 in 10.0 mi WSW 5.8 mph - N/A   Clear
9:15 AM 17.6 °F 9.3 °F 10.4 °F 73% 30.14 in 10.0 mi WNW 5.8 mph - N/A   Clear
9:35 AM 21.2 °F 13.6 °F 10.4 °F 63% 30.13 in 10.0 mi WNW 5.8 mph - N/A   Clear
9:55 AM 21.2 °F 13.6 °F 10.4 °F 63% 30.13 in 10.0 mi WNW 5.8 mph - N/A   Clear
10:15 AM 23.0 °F 15.8 °F 12.2 °F 63% 30.14 in 10.0 mi West 5.8 mph - N/A   Clear
10:35 AM 26.6 °F 19.1 °F 14.0 °F 59% 30.13 in 10.0 mi NW 6.9 mph - N/A   Clear
10:55 AM 28.4 °F 21.2 °F 15.8 °F 59% 30.13 in 10.0 mi NW 6.9 mph - N/A   Clear
11:15 AM 30.2 °F 23.4 °F 17.6 °F 60% 30.12 in 10.0 mi WNW 6.9 mph - N/A   Clear
11:35 AM 30.2 °F 23.4 °F 14.0 °F 51% 30.12 in 10.0 mi WNW 6.9 mph - N/A   Clear
11:55 AM 32.0 °F 26.4 °F 14.0 °F 48% 30.10 in 10.0 mi WNW 5.8 mph - N/A   Clear
12:15 PM 32.0 °F 26.4 °F 12.2 °F 44% 30.08 in 10.0 mi West 5.8 mph - N/A   Clear
12:35 PM 32.0 °F 25.6 °F 10.4 °F 41% 30.07 in 10.0 mi West 6.9 mph - N/A   Clear
12:55 PM 33.8 °F 27.0 °F 12.2 °F 41% 30.05 in 10.0 mi WNW 8.1 mph - N/A   Clear
1:15 PM 33.8 °F 27.7 °F 14.0 °F 44% 30.04 in 10.0 mi West 6.9 mph - N/A   Clear
1:35 PM 33.8 °F 26.4 °F 14.0 °F 44% 30.02 in 10.0 mi WSW 9.2 mph - N/A   Clear
1:55 PM 33.8 °F 25.8 °F 12.2 °F 41% 30.01 in 10.0 mi WSW 10.4 mph - N/A   Clear
2:15 PM 35.6 °F 28.6 °F 14.0 °F 41% 30.00 in 10.0 mi West 9.2 mph 16.1 mph N/A   Clear
2:35 PM 35.6 °F 28.0 °F 14.0 °F 41% 29.99 in 10.0 mi WSW 10.4 mph - N/A   Clear
2:55 PM 35.6 °F 28.0 °F 14.0 °F 41% 29.99 in 10.0 mi West 10.4 mph 17.3 mph N/A   Clear
3:15 PM 35.6 °F 28.0 °F 14.0 °F 41% 29.98 in 10.0 mi WSW 10.4 mph - N/A   Clear
3:35 PM 35.6 °F 28.6 °F 14.0 °F 41% 29.97 in 10.0 mi WSW 9.2 mph - N/A   Clear
3:55 PM 37.4 °F 32.1 °F 14.0 °F 38% 29.96 in 10.0 mi WSW 6.9 mph - N/A   Clear
4:15 PM 35.6 °F 28.6 °F 14.0 °F 41% 29.95 in 10.0 mi WSW 9.2 mph - N/A   Clear
4:35 PM 37.4 °F 31.4 °F 12.2 °F 36% 29.95 in 10.0 mi West 8.1 mph - N/A   Clear
4:55 PM 35.6 °F 29.2 °F 12.2 °F 38% 29.95 in 10.0 mi WSW 8.1 mph - N/A   Clear
5:15 PM 35.6 °F 30.7 °F 14.0 °F 41% 29.94 in 10.0 mi WSW 5.8 mph - N/A   Clear
5:35 PM 33.8 °F 30.8 °F 12.2 °F 41% 29.94 in 10.0 mi West 3.5 mph - N/A   Clear
5:55 PM 32.0 °F 27.5 °F 12.2 °F 44% 29.95 in 10.0 mi West 4.6 mph - N/A   Clear
6:15 PM 32.0 °F 28.7 °F 14.0 °F 48% 29.95 in 10.0 mi WSW 3.5 mph - N/A   Clear
6:35 PM 30.2 °F - 14.0 °F 51% 29.96 in 10.0 mi Calm Calm - N/A   Clear
6:55 PM 30.2 °F 26.7 °F 14.0 °F 51% 29.96 in 10.0 mi West 3.5 mph - N/A   Clear
7:15 PM 30.2 °F 26.7 °F 14.0 °F 51% 29.97 in 10.0 mi WSW 3.5 mph - N/A   Clear
7:35 PM 28.4 °F - 14.0 °F 55% 29.96 in 10.0 mi Calm Calm - N/A   Clear
7:55 PM 28.4 °F - 14.0 °F 55% 29.96 in 10.0 mi Calm Calm - N/A   Clear
8:15 PM 28.4 °F - 15.8 °F 59% 29.97 in 10.0 mi Calm Calm - N/A   Clear
8:55 PM 26.6 °F 21.2 °F 14.0 °F 59% 29.96 in 10.0 mi SSE 4.6 mph - N/A   Clear
9:15 PM 23.0 °F 17.0 °F 14.0 °F 68% 29.96 in 10.0 mi South 4.6 mph - N/A   Clear
9:35 PM 23.0 °F 17.0 °F 14.0 °F 68% 29.97 in 10.0 mi South 4.6 mph - N/A   Clear
9:55 PM 23.0 °F 18.4 °F 14.0 °F 68% 29.97 in 10.0 mi South 3.5 mph - N/A   Clear
10:15 PM 23.0 °F - 12.2 °F 63% 29.97 in 10.0 mi Calm Calm - N/A   Clear
10:35 PM 23.0 °F - 14.0 °F 68% 29.97 in 10.0 mi Calm Calm - N/A   Clear
10:55 PM 23.0 °F 17.0 °F 14.0 °F 68% 29.97 in 10.0 mi SSW 4.6 mph - N/A   Clear
11:15 PM 23.0 °F 17.0 °F 12.2 °F 63% 29.97 in 10.0 mi South 4.6 mph - N/A   Clear
11:35 PM 23.0 °F - 14.0 °F 68% 29.97 in 10.0 mi Calm Calm - N/A   Clear
11:55 PM 21.2 °F 16.4 °F 12.2 °F 68% 29.97 in 10.0 mi South 3.5 mph - N/A   Clear